Tracking 19280 objects as of 15-Nov-2018
HD Live streaming from Space Station
objects crossing your sky now

APRIZESAT 1

Track APRIZESAT 1 now!
10-day predictions
APRIZESAT 1 is classified as:


NORAD ID: 28372
Int'l Code: 2004-025G
Perigee: 701.9 km
Apogee: 766.5 km
Inclination: 98.3 °
Period: 99.3 minutes
Semi major axis: 7105 km
RCS: 0.0588 m2 (small)
Launch date: June 29, 2004
Source: United States (US)
Launch site: TYURATAM MISSILE AND SPACE COMPLEX (TTMTR)

Messaging services.
aabbcc
Your satellite tracking list
Your tracking list is empty




NASA's NSSDC Master Catalog

Two Line Element Set (TLE):
1 28372U 04025G   18318.86216811  .00000046  00000-0  23724-4 0  9999
2 28372  98.3179 262.9721 0045484 313.8191  45.9245 14.49566935760274
Source of the keplerian elements: AFSPC